STARLINK-33728, 63715

Orbit data source: Space-Track

STARLINK-33728, 63715 is a payload satellite owned by SpaceX/Seattle (US) in LEO that was launched on Mon, 28 Apr 2025 UTC via an FALCON 9 launch vehicle from the Air Force Western Test Range (AFWTR). Payload-class satellites include a variety of spacecraft equipped with specific instruments for various scientific and technological missions. These include communications satellites like Starlink; space stations such as the ISS; scientific satellites like the Hubble; Earth observation satellites from companies like Planet Labs, Umbra, and HawkEye 360; GPS; miniature CubeSats for education and research; and military/defense satellites.

Loading next visibility...
Identifier
63715, 2025-087U
Orbit
LEO
Country
Flag of USUS
Related business
Manufacturer
SpaceX/Seattle
Mission
Operational Commercial Communications
Bus & Motor
STARLINK V2MO, Unknown motor
Mass
575 kg wet, ~530 kg dry
Launch date (UTC)
2025-04-28 (8 months ago)
Launch vehicle
FALCON 9
Launch site
Air Force Western Test Range (AFWTR)
Object type
Payload
Rocket body
Debris
Shape & HBR
Box + 2 Pan, 17.7 m
Radar Cross Section
36.964 m², Large (>1 m²)

Expand to show TLE details & history
Last TLE update: 16 hours ago

TLE from 16 hours ago
0 STARLINK-33728
1 63715U 25087U   25348.92524183  .00020736  00000-0  71019-3 0  9999
2 63715  53.1604 253.1444 0001335  72.8546 287.2601 15.30204833 36228
Epoch: 2025-12-14T22:12Z
TLE epoch observation values (Epoch: 2025-12-14T22:12:20.894Z)
Latitude
0.00001°
Longitude
-163.77382°
Altitude
475.829 km
Speed
7.629 km/s
True Right ascension
16h 52m 34s
True Declination
0° 00' 00"
Sunlit
Object was in daylight at epoch
Visualization orbit readout
Latitude
Unknown
Longitude
Unknown
Altitude
Unknown
Speed
Unknown
Apparent Right ascension
Unknown
Apparent Declination
Unknown
Sunlit
N/A
Visualization observer readout
Local Sidereal Time
13:19:02
Azimuth
Unknown
Elevation
Unknown
Doppler factor
Unknown
Orbital elements
Apogee altitude
476.372 km
Perigee altitude
474.542 km
Semi-major axis
6,853.594 km
Eccentricity
0.00013
Inclination
53.1604°
RAAN
253.1444°
Arg. of periapsis
72.8546°
True anomaly
287.24549°
Mean anomaly
287.2601°
Eccentric anomaly
287.2528°
Mean motion
3.8253 °/min
Orbital period
94.11 mins
BSTAR
0.00071019
Loading maneuver chart data...
Computing Atmospheric mass density...
Loading historical data...
Loading historical data...
Loading historical data...
Loading historical data...
Loading historical data...
Loading historical data...
Loading historical data...

Documentation

Showing up to 5 results
|